AirNav   Pilot Hours Calculator
 
 571 users online  

0MU6 Bradbury-Rolf Memorial Heliport
Higginsville, Missouri, USA

GOING TO HIGGINSVILLE?


FAA INFORMATION EFFECTIVE 11 AUGUST 2022

Location

FAA Identifier: 0MU6
Lat/Long: 39-04-25.4400N 093-44-09.2200W
39-04.424000N 093-44.153667W
39.0737333,-93.7358944
(estimated)
Elevation: 815 ft. / 248 m (estimated)
Variation: 04E (1995)
Time zone: UTC -5 (UTC -6 during Standard Time)
Zip code: 64037

Heliport Operations

Heliport use: Private use, MEDICAL
Activation date: 09/1996
Control tower: no
ARTCC: KANSAS CITY CENTER
FSS: COLUMBIA FLIGHT SERVICE STATION
Attendance: UNATNDD
Wind indicator: yes
Segmented circle: no
Lights: FOR FLOOD LGTS CALL 660-584-3832.

Heliport Communications

WX AWOS-3PT at RCM (18 nm S): 119.575 (660-422-7010)

Nearby radio navigation aids

VOR radial/distance  VOR name  Freq  Var
ANXr087/18.3NAPOLEON VORTAC114.0007E
BQSr166/34.0BRAYMER VOR/DME115.3503E

Heliport Services

Runway Information

Helipad H1

Dimensions: 60 x 60 ft. / 18 x 18 m
Surface: concrete
Runway edge lights: FLD
Runway edge markings: MARKED WITH LETTER H.
Latitude: 39-04.424000N
Longitude: 093-44.153667W
Elevation: 815.0 ft.
Traffic pattern: leftleft

Heliport Ownership and Management from official FAA records

Ownership: Privately-owned
Owner: FAMILY PRACTICE ASSOC
1200 W 22ND
HIGGINSVILLE, MO 64037
Phone (660) 584-7751
Manager: ROD KIRCHHOFF
850 WILLOW CREEK LN
HIGGINSVILLE, MO 64037
Phone (816) 565-3685

Additional Remarks

A52-H1 30-40 FT PLINES MKD E & S OF HELIPAD.
FOR CD CTC WHITEMAN APCH AT 660-687-3132. WHEN WHITEMAN APCH IS CLSD, CTC KANSAS CITY ARTCC AT 913-254-8508.

Instrument Procedures

There are no published instrument procedures at 0MU6.

Some nearby airports with instrument procedures:

KHIG - Higginsville Industrial Municipal Airport (3 nm E)
KRCM - Skyhaven Airport (18 nm S)
KSZL - Whiteman Air Force Base (22 nm SE)
3GV - East Kansas City Airport (23 nm W)
KMHL - Marshall Memorial Municipal Airport (25 nm E)
 
Loc | Ops | Rwys | IFR | FBO | Links
Com | Nav | Svcs | Stats | Notes
Area around 0MU6 (Bradbury-Rolf Memorial Heliport)
 
Road maps at: MapQuest Bing Google
 
Aerial photo
No photo
 
Sectional chart

 
Airport distance calculator
Flying to Bradbury-Rolf Memorial Heliport? Find the distance to fly.

From to 0MU6

Sunrise and sunset
Times for 15-Aug-2022
 Local
(UTC-5)
 Zulu
(UTC)
Morning civil twilight06:0111:01
Sunrise06:2911:29
Sunset20:1001:10
Evening civil twilight20:3801:38

Current date and time
Zulu (UTC)  15-Aug-2022 09:17:58
Local (UTC-5)  15-Aug-2022 04:17:58
 
METAR
KRCM 
18nm S 
150855Z AUTO 04004KT 10SM CLR 21/18 A2999 RMK AO2
KSZL 
23nm SE 
150856Z 08004KT 10SM SCT170 21/19 A2995 RMK AO2A SLP137 T02110190 50002 $
KMHL 
25nm E 
150855Z AUTO 09004KT 10SM CLR 19/18 A3001 RMK AO2
KLXT 
30nm W 
150853Z AUTO 10005KT 10SM CLR 22/19 A2998 RMK AO2 SLP143 T02220194 55003
KGPH 
31nm NW 
150855Z AUTO 07006KT 10SM CLR 21/17 A2999 RMK AO2
KDMO 
34nm SE 
150853Z AUTO 12004KT 10SM CLR 21/18 A3001 RMK AO2 SLP152 T02060183 51002
TAF
KSZL 
23nm SE 
150300Z 1503/1609 03009KT 9999 BKN100 BKN200 621208 QNH2990INS TEMPO 1509/1512 6000 SHRA BKN050 BECMG 1512/1513 08009KT 9999 BKN060 621208 QNH2997INS TEMPO 1518/1522 6000 SHRA BECMG 1603/1604 09009KT 4800 RA BKN040 621208 QNH2995INS TEMPO 1604/1609 3200 TSRA BKN020CB TX32/1521Z TN19/1510Z
NOTAMs
Click for the latest NOTAMs
NOTAMs are issued by the DoD/FAA and will open in a separate window not controlled by AirNav.

 

 
 

Would you like to see your business listed on this page?

 If your business provides an interesting product or service to pilots, flight crews, aircraft, or users of the Bradbury-Rolf Memorial Heliport, you should consider listing it here.  To start the listing process, click on the button below
 
Add a business
 

Other Pages about Bradbury-Rolf Memorial Heliport

Update a link
 
Copyright © AirNav, LLC. All rights reserved. Privacy Policy  Contact